Theta_e
323 316 312 313 310 313 310 305 301 298 298 292 290 296 299 299 301 301 301 303 305 304 304 309 311 311 310 310 311 309 309 311 309 305 305 314 327 335 334 333 333 334 334 335 336 338 340 343 346 345 343 340 339 338 340 347 346 343 343 345 343 341 345 346 346 343 339 339 342 342 342 341 341 341 341 340 342 342 343 343 343 343 344 344 343 345 344 345 345 345 346 346 345 344 344 344 343
318 315 313 312 315 312 308 300 294 291 291 291 293 292 295 297 301 301 302 302 303 306 310 314 314 314 313 313 313 315 312 317 310 317 323 328 333 333 334 333 333 333 334 335 335 336 338 346 346 346 342 341 340 339 341 341 341 341 341 343 342 339 339 343 343 341 339 341 342 342 341 341 340 341 341 342 342 342 343 343 343 344 344 344 343 345 344 344 344 345 345 345 344 344 344 343 343
315 314 315 312 311 304 303 301 300 286 288 290 289 293 295 298 300 301 303 301 303 312 314 313 312 311 310 309 310 309 310 322 318 322 326 333 328 329 332 332 333 334 334 335 335 336 340 346 345 346 344 342 340 337 337 339 340 341 340 340 339 340 340 341 340 339 340 342 342 342 342 342 343 343 343 342 342 342 341 342 343 343 343 343 343 343 344 344 344 344 345 345 344 343 343 343 342
315 315 312 308 310 304 298 294 292 290 291 288 288 292 293 299 300 302 302 301 312 308 306 311 310 312 309 306 308 316 316 319 324 327 325 329 330 332 332 332 334 334 335 334 334 337 342 344 344 346 344 343 340 337 338 339 340 341 340 343 344 343 343 340 336 337 341 338 338 341 342 342 342 342 342 342 342 343 342 342 342 342 342 342 343 342 343 343 343 344 344 344 344 342 342 343 342
314 318 311 306 305 303 295 291 290 290 293 289 295 294 294 296 302 299 305 306 311 302 305 311 311 313 315 312 313 310 312 321 325 331 328 332 334 333 332 333 334 334 334 334 336 338 344 343 344 345 344 343 340 339 339 340 340 341 342 343 344 345 342 338 337 342 343 341 340 341 341 341 342 342 342 342 342 342 342 342 341 341 341 342 343 344 343 342 343 343 344 344 343 342 342 342 342
309 309 310 310 306 306 298 295 295 293 293 292 295 295 293 295 301 302 308 309 308 303 303 307 310 311 313 316 315 312 319 317 326 329 330 331 333 333 332 333 333 333 333 334 335 338 344 341 343 345 344 343 341 339 339 340 339 340 343 346 345 345 343 342 345 345 343 341 341 342 342 342 342 341 342 342 342 341 341 342 341 341 342 343 343 344 343 343 343 343 342 343 343 342 341 342 341
313 307 305 307 301 302 296 291 290 290 295 293 297 295 296 295 301 306 306 307 305 306 304 311 310 311 311 312 319 321 322 328 328 329 333 333 333 332 332 333 333 332 332 334 336 338 342 341 345 345 344 342 340 340 340 339 339 338 344 345 344 344 344 344 344 343 342 342 342 342 342 342 342 342 341 341 341 341 341 341 341 341 341 341 341 342 342 342 342 343 343 342 342 341 341 340 340
313 312 305 301 295 297 292 290 290 290 298 292 295 296 296 298 301 307 305 303 303 306 310 310 308 307 307 315 315 322 321 323 327 335 334 333 332 332 333 332 332 331 333 334 336 340 343 341 344 344 343 342 341 339 338 338 339 339 338 340 343 343 344 343 342 341 341 341 341 341 340 341 340 340 340 340 341 340 340 340 340 340 340 341 341 340 341 341 342 342 341 341 341 340 340 340 340
307 306 301 301 295 291 288 294 293 291 292 292 294 294 303 300 304 306 304 300 303 303 310 312 309 306 306 313 312 318 322 327 332 334 333 333 331 332 332 332 331 331 333 334 337 339 342 339 342 343 342 343 342 339 338 338 339 339 337 337 342 342 340 340 340 339 339 339 339 339 340 340 339 339 339 340 340 340 340 340 340 340 340 340 340 340 340 341 341 341 341 341 340 340 340 340 339
306 306 301 297 293 295 286 289 293 294 293 293 294 298 299 301 302 304 303 301 303 309 310 305 306 303 308 310 311 319 324 330 333 333 333 332 331 332 331 332 332 331 332 333 336 338 341 341 339 341 341 343 342 340 339 339 338 338 337 336 338 338 338 339 339 338 338 337 337 337 337 337 338 340 341 340 341 340 340 340 340 340 339 339 339 340 340 340 341 340 340 340 340 339 339 339 338
301 300 299 298 289 290 291 288 287 292 293 293 294 295 299 302 302 299 300 302 304 308 309 308 309 309 311 309 313 318 321 331 331 329 332 332 331 331 331 332 332 332 331 333 335 338 340 342 340 339 340 340 341 341 341 341 338 337 337 337 337 337 339 341 339 338 336 336 336 337 340 341 341 341 341 340 340 340 340 340 340 339 339 339 340 341 341 341 340 341 340 340 340 339 339 338 337
300 298 297 289 289 290 288 290 289 291 293 293 300 301 299 302 300 301 300 303 305 304 308 309 306 310 306 305 312 319 327 330 331 332 332 332 331 331 331 332 332 333 333 333 334 337 338 341 343 340 337 338 339 340 339 340 341 340 338 337 337 336 339 342 341 339 338 337 337 340 341 341 341 340 340 340 340 340 340 339 339 339 339 339 339 340 340 340 340 340 339 338 338 338 338 337 336
299 297 294 293 291 290 288 290 290 294 292 292 300 301 301 301 302 302 300 302 302 305 306 307 311 309 302 307 314 316 323 329 332 333 332 331 330 330 331 332 333 333 332 334 336 335 335 336 340 341 338 334 335 336 336 338 340 340 340 338 337 337 338 341 341 340 340 340 341 341 340 340 340 339 339 339 339 338 338 339 337 338 339 339 339 338 339 339 339 338 337 337 337 337 337 337 336
300 298 297 296 288 288 290 292 289 293 290 298 295 299 302 302 302 300 302 303 302 305 307 308 313 311 309 310 311 317 324 330 332 332 331 330 329 330 330 331 332 332 333 334 335 334 334 334 335 338 339 340 341 336 333 335 337 339 339 339 338 339 341 341 340 340 340 339 339 339 339 339 338 338 338 338 337 337 337 338 338 337 337 338 338 338 338 338 337 337 336 336 336 336 336 335 335
305 299 294 290 289 292 290 293 294 290 294 295 300 300 300 302 298 299 304 301 303 304 311 315 314 304 300 302 305 315 323 330 332 331 329 328 328 329 329 329 330 332 333 334 335 334 334 335 334 334 335 338 339 340 341 339 334 335 336 336 337 338 338 336 336 337 336 336 335 334 333 332 332 332 333 333 335 333 332 331 334 336 336 337 337 337 336 336 336 335 334 335 335 335 335 335 334
303 299 295 294 291 291 293 292 287 291 294 294 296 296 301 300 297 302 302 304 305 306 310 313 311 305 307 304 310 314 325 330 330 329 328 326 327 327 327 327 329 331 333 335 335 335 336 335 334 333 333 335 337 338 340 341 333 331 334 335 335 335 333 333 332 332 328 328 328 328 327 330 329 330 326 331 328 330 329 330 331 336 336 336 336 336 336 335 336 334 334 333 332 331 331 330 332
301 300 296 289 292 290 293 292 291 294 293 293 293 299 303 301 298 298 300 305 305 308 311 311 311 313 313 307 316 316 328 330 328 328 327 325 324 324 325 326 327 328 331 334 334 335 336 335 334 332 332 334 336 337 338 338 335 330 331 330 330 330 330 329 327 323 322 321 323 322 324 331 331 332 332 332 325 332 322 324 329 334 336 335 335 335 335 334 335 335 333 332 329 326 322 323 323
302 296 291 292 291 291 294 294 293 296 295 295 295 294 302 300 298 302 306 305 305 308 310 310 313 314 314 315 316 324 328 328 328 326 324 323 323 321 321 323 324 324 328 330 333 334 335 336 336 333 332 333 336 337 338 336 335 333 334 334 335 332 327 325 328 331 327 329 321 326 329 329 329 330 330 326 329 328 328 322 326 330 334 333 333 333 333 333 333 333 331 330 327 322 318 324 323
295 292 293 293 291 295 295 295 294 295 295 294 293 293 301 302 298 300 302 299 306 307 308 309 313 314 318 319 322 324 327 327 327 326 323 321 321 319 319 321 322 324 325 328 330 332 334 334 335 334 332 333 335 337 337 335 335 334 333 331 331 328 329 328 329 328 327 327 326 327 326 326 325 325 325 323 323 319 324 322 324 328 328 327 328 328 329 331 331 329 328 326 322 318 322 323 324
298 296 292 291 295 294 294 295 296 294 294 294 294 295 297 300 299 300 301 299 303 304 304 306 309 311 314 317 321 324 326 326 327 326 323 321 321 320 319 320 321 322 324 326 327 330 332 333 333 334 333 332 334 335 336 335 335 334 332 330 327 329 329 327 327 326 326 325 325 324 324 323 324 324 323 323 323 326 325 319 319 319 319 318 317 320 318 322 325 323 323 319 318 317 320 320 320
298 296 292 294 294 294 295 293 294 293 293 294 293 293 296 297 298 300 298 301 301 303 305 307 308 311 314 317 321 323 325 325 326 326 324 322 322 322 320 320 321 322 324 326 327 328 330 331 333 333 334 333 333 334 334 334 334 333 332 331 328 328 327 327 326 326 325 325 323 323 323 323 324 324 324 324 325 324 324 324 323 323 320 320 317 321 317 318 318 321 320 317 317 318 320 319 320
296 294 297 296 294 295 295 293 293 292 291 293 292 296 296 297 298 299 300 299 299 302 306 306 308 312 316 317 320 323 324 324 325 325 324 323 323 323 322 322 322 323 324 323 324 326 329 330 332 332 334 333 333 333 333 333 333 332 331 331 328 326 327 326 326 325 325 324 324 322 322 322 322 322 322 322 322 323 323 323 321 319 319 319 317 319 317 318 318 317 318 319 318 318 318 318 316
295 294 299 297 293 295 295 293 292 291 294 294 294 295 295 298 297 297 300 301 300 299 299 306 307 314 318 321 321 322 323 324 325 325 325 324 324 324 324 323 321 320 322 323 324 325 328 330 331 333 331 333 333 333 333 333 332 332 332 331 329 326 326 325 325 325 325 324 324 321 322 322 322 322 322 321 321 321 322 321 320 317 318 317 316 317 315 316 316 317 319 318 316 317 318 318 316
296 294 299 298 293 294 293 295 292 291 292 293 294 296 297 296 297 296 299 302 297 299 302 299 308 317 320 319 320 322 323 324 325 326 326 325 325 326 326 324 323 323 323 323 323 324 326 328 330 331 331 332 332 333 331 331 332 331 331 329 329 327 325 325 325 325 324 324 324 324 323 323 322 322 322 321 321 319 321 320 319 318 316 316 315 314 316 315 315 314 318 318 319 317 318 317 318
297 296 298 297 294 294 294 293 291 290 291 292 295 297 295 295 296 295 298 302 299 310 311 311 315 317 319 319 319 321 322 324 325 326 327 328 327 327 328 327 325 323 322 322 323 324 326 328 329 329 330 331 331 332 330 330 330 331 331 330 328 326 326 326 326 324 324 324 324 324 324 322 321 321 321 321 321 320 320 319 318 319 317 316 315 316 317 319 317 317 317 317 315 320 320 322 318
298 299 298 295 295 295 296 293 290 289 291 292 295 294 293 292 295 295 299 297 299 312 313 314 315 316 317 318 319 320 321 323 325 325 326 327 327 326 326 326 326 324 323 323 323 324 326 327 328 328 329 330 330 332 330 329 329 329 329 330 329 327 327 327 325 324 325 324 324 324 324 325 323 322 321 321 320 320 320 319 318 319 319 318 315 319 316 318 321 318 318 319 320 320 322 318 318
298 298 298 297 297 296 296 294 293 290 292 292 296 294 295 293 295 296 296 295 304 311 311 310 314 315 316 317 319 320 321 322 324 325 326 326 326 326 326 327 326 326 325 324 324 324 325 326 327 328 329 329 330 330 330 329 329 328 328 329 329 328 327 326 325 325 324 324 325 324 324 324 324 324 323 320 320 320 319 319 319 319 318 317 316 318 314 318 318 321 321 321 322 321 321 318 319
294 295 294 295 294 295 295 294 293 293 295 290 295 293 293 293 295 297 298 301 308 307 310 311 311 314 316 317 318 320 320 322 324 324 323 323 324 326 326 326 327 327 326 325 326 326 326 325 326 327 328 329 329 329 330 328 328 328 328 328 328 328 328 326 325 325 323 325 325 324 324 324 324 325 324 322 321 320 319 319 319 318 319 319 316 318 317 316 319 318 316 317 317 318 319 319 315
293 294 293 293 294 297 294 295 295 292 295 291 292 293 292 294 293 298 294 300 305 307 310 311 311 312 314 316 317 318 320 321 322 322 323 325 326 327 326 328 328 328 329 328 328 327 326 326 326 326 327 328 328 328 329 329 328 328 327 328 328 328 328 327 326 325 325 325 325 325 324 324 324 324 323 324 322 323 321 319 319 318 319 318 318 318 317 317 317 317 317 313 315 316 318 320 316
295 295 292 293 291 292 294 294 294 293 294 290 292 290 289 292 297 294 293 300 305 306 308 311 311 311 312 314 316 318 319 319 320 322 323 324 325 327 326 328 329 329 329 330 330 328 328 328 327 327 327 327 327 328 329 328 328 327 328 328 328 328 327 327 326 326 325 325 325 325 324 324 324 324 324 323 323 322 321 321 322 321 320 320 319 318 319 319 320 319 320 318 317 319 320 319 318
294 294 293 291 291 289 293 293 294 294 294 291 294 289 288 291 294 294 297 299 303 303 306 309 310 310 311 312 314 316 317 320 321 322 322 323 324 326 327 328 329 330 329 330 329 330 330 329 329 328 327 327 326 327 327 328 328 327 327 327 327 327 327 326 326 326 325 325 325 324 324 324 324 324 324 324 322 322 321 321 320 321 320 319 319 318 320 319 319 320 319 320 319 317 316 315 316
289 293 290 289 290 289 292 293 292 295 293 292 294 288 290 295 297 291 288 296 298 299 301 307 309 310 311 312 313 315 317 319 320 320 321 322 323 324 325 326 328 328 329 329 329 330 330 331 330 329 329 328 327 327 328 328 328 328 328 324 327 327 326 325 325 325 325 326 325 325 324 324 324 324 323 323 322 321 322 321 321 321 319 318 319 317 317 319 318 318 317 318 319 319 315 317 313
287 292 286 287 287 290 293 295 290 294 292 294 293 290 288 294 293 291 291 299 300 298 296 300 305 308 310 311 313 314 315 316 317 318 319 321 322 323 324 325 326 327 328 329 328 329 329 330 330 330 330 329 329 328 329 329 329 329 329 328 327 326 326 325 325 325 325 325 325 325 325 324 324 324 323 323 323 321 321 321 322 320 318 318 318 317 317 318 318 317 316 314 317 318 316 316 316
289 285 285 286 289 289 290 292 292 292 292 292 291 290 288 294 295 295 290 298 299 298 299 297 299 304 308 310 311 312 313 315 316 318 319 320 322 322 324 322 325 326 327 328 328 328 328 329 330 330 331 331 330 330 329 329 330 330 330 330 327 327 326 326 326 326 325 325 325 325 326 325 324 324 324 323 322 322 322 321 321 318 317 317 317 316 316 316 315 317 318 316 316 317 317 316 316
285 287 286 287 285 288 291 293 293 291 289 291 289 288 290 293 294 294 293 297 298 297 298 298 298 300 304 307 309 311 312 313 315 318 319 320 321 322 323 323 324 325 326 327 327 327 328 328 328 328 329 331 332 332 331 331 331 331 331 330 328 327 327 327 327 325 326 325 325 326 326 325 324 324 324 323 322 322 322 322 321 319 317 317 317 316 316 315 316 317 318 319 315 317 319 318 317
291 290 291 288 288 287 288 291 289 291 289 289 288 289 290 292 294 295 291 293 296 296 296 297 297 297 300 304 307 309 311 312 316 317 318 319 320 321 322 323 323 324 325 325 325 326 326 327 327 328 328 330 332 332 332 330 330 329 328 328 327 326 327 325 326 326 326 325 325 326 326 325 325 324 324 324 323 322 322 321 321 320 318 318 318 318 318 316 315 316 317 317 314 313 313 316 316
292 289 286 286 287 286 287 287 288 289 289 287 288 288 289 291 293 295 291 290 291 291 292 294 296 297 297 299 303 306 308 311 313 314 315 315 317 320 321 322 322 322 323 324 324 324 325 326 325 325 327 328 329 329 330 330 328 328 329 328 326 328 327 327 326 327 326 326 326 325 325 325 325 324 324 324 323 321 322 322 321 320 320 319 319 319 321 320 319 318 318 316 316 315 315 314 315
291 288 287 285 286 287 286 290 289 288 290 285 285 286 288 290 293 294 291 289 292 292 292 292 293 294 296 296 297 301 305 307 307 308 307 312 315 317 319 320 320 320 321 322 323 324 324 325 325 326 327 327 328 330 330 330 330 330 328 328 329 329 328 326 327 328 327 327 326 325 325 325 325 325 324 324 323 324 323 322 321 321 319 319 320 321 320 318 319 318 317 316 314 316 316 315 315
288 288 286 286 285 285 286 285 287 288 289 287 284 287 288 289 291 292 291 292 294 294 294 295 295 294 294 295 295 297 298 300 303 305 307 309 312 315 317 319 320 321 322 322 323 323 324 324 324 326 327 326 327 328 330 330 332 332 332 331 330 329 330 330 330 330 329 329 328 327 326 326 326 325 325 324 324 324 324 323 322 322 320 320 319 319 320 319 317 317 317 319 314 312 314 314 313
288 284 285 287 285 287 287 287 288 288 287 286 285 284 287 288 289 290 292 292 293 294 294 294 294 295 295 296 297 296 296 297 298 300 302 305 308 312 314 316 319 320 321 321 322 322 323 323 324 325 326 326 326 326 325 331 331 333 333 333 332 332 329 329 331 331 330 329 327 328 327 327 327 327 326 325 324 324 324 323 323 322 322 321 320 320 320 319 318 316 316 316 319 316 313 315 314
287 288 285 283 284 285 288 288 286 284 286 286 286 286 288 288 290 291 291 289 291 293 292 291 292 293 296 296 295 296 296 297 297 298 299 301 303 306 311 314 317 318 320 321 321 322 323 323 324 324 325 325 326 325 325 327 328 327 329 329 327 328 325 326 327 327 329 327 327 326 326 326 327 327 327 326 324 325 325 324 324 323 323 321 321 320 320 320 319 318 318 317 315 317 316 315 312
285 285 287 286 284 285 285 285 286 283 285 284 287 283 285 284 286 289 292 289 289 289 291 292 293 293 293 293 295 296 296 297 297 298 299 299 301 303 306 310 313 316 318 320 322 322 323 324 324 324 325 325 325 325 325 325 325 326 325 325 322 323 323 322 321 323 325 326 325 328 327 326 326 326 326 327 326 324 325 326 325 325 323 322 321 321 322 321 320 319 318 317 316 316 318 314 314
285 286 286 286 286 285 284 285 286 281 280 284 284 285 281 282 285 287 288 288 289 290 289 291 292 293 292 293 295 295 296 296 296 297 297 297 298 300 302 306 310 313 316 319 321 322 323 323 324 324 324 324 325 325 325 323 325 325 326 325 325 324 323 325 326 327 328 328 328 328 328 327 326 326 326 326 326 325 325 325 325 324 324 323 321 322 322 321 321 319 317 317 319 318 316 314 314
285 286 287 285 285 285 284 283 284 281 282 285 283 283 279 282 288 289 286 285 287 288 289 289 291 292 292 293 295 295 296 296 297 297 297 297 297 298 299 303 307 311 313 317 319 320 321 322 323 323 324 323 324 325 324 324 324 324 324 325 325 325 325 326 327 327 328 328 327 327 327 326 326 327 326 326 326 326 324 325 325 324 323 323 320 320 321 322 322 321 319 318 318 317 316 316 316
285 286 288 286 287 285 284 285 282 283 283 281 281 284 281 278 282 283 287 289 289 290 290 290 290 292 293 293 294 295 296 296 296 297 297 297 296 297 298 299 302 306 310 314 316 319 321 322 322 323 323 323 324 324 323 323 323 324 324 325 324 324 326 327 327 326 325 326 327 327 327 326 326 326 327 326 326 327 324 325 325 324 323 322 318 321 321 322 320 320 318 316 316 316 315 316 316
286 286 289 289 288 288 288 284 286 281 280 278 281 282 280 281 281 284 283 285 288 290 291 292 291 291 293 294 294 295 295 295 295 295 296 297 297 297 297 298 298 301 305 311 315 317 318 320 320 321 322 323 323 324 323 323 323 322 324 324 323 324 324 324 323 322 322 322 325 326 326 326 325 325 326 326 326 326 326 325 325 324 323 324 320 322 322 321 320 320 319 317 317 317 316 315 316
287 289 289 288 287 285 284 283 280 280 274 277 282 281 282 278 282 286 286 286 289 290 289 289 289 289 290 290 292 295 294 293 293 293 294 295 295 295 295 296 297 298 301 307 311 315 317 318 319 319 321 323 322 323 323 323 323 323 323 324 323 323 323 323 321 321 319 318 323 324 324 325 325 324 325 325 326 326 326 325 324 324 325 323 322 322 320 319 319 320 320 318 316 316 315 314 313
290 285 286 288 286 285 284 282 283 276 272 274 277 280 282 278 280 282 288 285 284 290 291 293 293 293 292 291 291 291 290 290 291 291 292 293 293 293 293 293 294 295 298 303 308 312 315 317 318 318 320 321 322 322 322 323 323 323 323 324 323 324 324 323 322 322 320 319 321 321 321 322 322 324 324 323 323 325 325 324 322 324 322 323 322 322 322 322 322 320 318 317 316 315 316 313 313
289 287 288 286 281 283 279 280 277 277 275 278 277 278 280 281 284 284 284 285 287 285 289 291 293 294 293 291 289 289 290 290 291 292 292 293 294 294 294 293 293 293 295 298 304 309 313 315 317 317 318 320 321 322 322 322 322 323 323 323 324 324 324 324 323 323 322 320 320 320 318 319 320 319 321 321 323 323 322 323 323 323 323 323 323 322 322 321 320 318 317 316 316 314 314 314 313
285 286 285 284 279 278 277 276 270 271 276 278 280 279 278 282 283 288 291 292 290 289 287 289 289 290 291 291 291 289 290 290 291 292 293 294 294 294 294 294 293 294 294 296 300 306 310 313 315 316 318 319 320 321 321 321 322 323 323 323 324 324 323 324 324 323 322 321 321 319 319 320 318 319 321 321 324 323 323 323 323 323 323 323 322 322 322 321 319 318 317 316 315 316 314 313 313
287 286 289 287 285 279 276 275 276 276 276 276 277 277 277 278 285 285 288 290 288 286 286 286 286 288 289 288 288 288 289 291 291 291 292 293 294 294 294 294 293 293 294 295 298 302 307 310 313 314 316 317 318 319 320 321 322 322 323 323 324 324 324 324 324 323 323 320 319 319 319 319 319 319 321 322 323 322 322 323 323 323 322 322 321 321 319 318 318 317 316 316 315 314 313 311 311
284 283 284 282 285 281 275 270 272 270 273 272 274 279 280 283 285 287 287 286 286 287 288 287 289 289 288 288 289 290 290 291 291 291 292 293 293 294 294 294 294 294 294 295 296 300 304 308 311 313 315 317 317 317 319 320 321 322 322 322 323 323 322 323 322 321 321 321 319 319 318 318 319 320 320 320 320 321 321 321 321 322 322 322 321 319 318 316 315 314 313 313 312 310 311 310 309
284 283 283 284 283 280 274 273 274 273 272 276 273 278 281 282 287 293 289 285 287 286 285 286 288 288 286 289 292 292 290 290 290 291 292 293 293 293 293 294 294 294 294 295 296 298 302 305 308 310 312 313 315 316 318 319 320 320 320 322 322 321 321 321 322 320 320 319 319 319 319 318 318 317 317 317 318 319 320 321 320 320 321 320 319 317 316 315 314 312 311 311 310 310 310 309 309
283 278 284 285 284 283 279 275 268 267 272 274 273 280 280 281 282 284 285 287 290 289 290 286 285 284 286 290 291 291 290 290 289 289 289 291 292 293 293 293 294 295 296 296 296 297 299 303 306 307 308 310 312 313 314 316 317 318 319 319 320 321 321 321 321 319 318 317 316 317 315 314 315 315 315 313 316 316 318 313 319 318 318 317 316 316 315 313 312 310 310 311 311 310 308 306 307
288 285 287 287 280 280 279 273 270 268 269 269 270 274 275 280 285 283 284 286 290 290 289 288 288 287 288 288 288 288 287 287 289 289 289 289 290 291 292 292 293 293 295 296 296 296 296 298 301 305 307 309 310 311 312 313 315 317 318 318 319 319 319 319 318 317 316 317 315 315 314 316 314 311 310 309 312 313 314 314 316 315 313 314 314 314 313 311 311 309 307 306 305 307 305 303 301
285 285 285 284 283 280 276 279 273 277 269 267 272 267 281 281 282 285 287 283 286 289 287 287 288 288 288 288 288 287 288 289 289 289 288 288 289 290 290 291 293 293 293 294 294 295 296 297 298 300 301 302 303 306 308 311 311 313 314 315 316 317 317 317 317 317 316 316 316 314 313 312 312 310 311 310 310 311 311 310 310 310 309 309 310 310 310 309 308 309 307 305 304 305 303 302 299
281 283 282 284 279 281 281 278 275 277 267 267 267 272 277 280 282 287 292 293 290 287 288 288 288 287 286 285 286 287 287 288 288 288 289 289 289 289 290 290 291 293 293 293 294 295 296 295 296 297 300 301 302 305 306 308 309 310 312 313 314 315 315 316 316 316 316 316 315 313 313 313 309 308 308 307 307 308 309 308 307 307 307 305 306 305 305 306 305 303 303 303 301 302 301 298 299
283 284 283 284 280 278 280 279 277 270 273 268 265 276 274 280 281 288 289 291 291 288 288 288 288 287 287 286 286 286 287 288 288 289 289 289 288 289 291 291 292 292 294 296 297 297 296 296 295 296 296 299 301 302 304 306 307 310 311 312 313 313 314 314 314 313 314 313 312 311 311 307 307 306 306 306 306 305 304 304 305 304 303 303 303 303 301 303 302 300 298 302 300 299 298 296 297
Wind_Speed
5 4 1 3 4 2 2 7 1 3 2 1 1 1 1 1 1 2 0 1 3 1 2 1 8 6 5 4 7 3 2 8 6 4 2 1 1 9 5 6 8 6 6 4 1 1 2 4 10 9 11 9 10 9 9 13 9 10 14 13 11 11 15 14 14 15 13 13 15 15 15 16 15 16 15 16 16 16 17 16 17 17 17 17 17 17 18 18 18 18 18 19 18 18 18 19 19
3 4 3 1 1 2 1 1 5 3 6 3 3 2 2 2 2 5 8 7 3 2 2 3 4 5 5 3 6 6 3 4 4 2 2 2 6 5 6 7 9 9 6 3 2 2 2 8 10 10 11 10 10 8 11 11 11 11 11 12 12 11 11 13 14 13 13 14 14 14 14 14 16 16 16 15 16 16 17 17 16 16 17 17 17 17 18 17 17 17 17 18 18 18 18 18 18
3 4 1 3 3 5 2 4 1 1 3 0 3 6 2 3 5 5 8 4 3 2 5 4 4 3 2 2 0 1 2 2 2 2 4 6 9 6 8 6 7 7 6 3 3 2 3 7 9 10 11 10 9 7 8 11 10 10 9 9 11 11 11 12 11 11 13 14 14 14 15 15 16 16 15 15 15 16 16 16 17 16 16 16 17 17 17 17 16 17 17 17 18 18 18 18 18
4 6 2 3 2 4 1 4 4 5 1 3 2 4 5 5 7 7 5 2 5 4 1 5 5 2 1 3 2 4 4 1 5 5 6 8 5 8 8 7 5 5 4 3 3 3 4 8 9 10 11 10 9 9 8 10 10 9 8 11 10 12 11 10 10 11 14 12 12 14 14 15 15 15 16 15 15 15 15 15 15 15 16 16 16 17 16 17 17 17 17 17 18 17 17 18 17
3 2 4 4 3 2 3 1 4 2 1 6 2 3 5 6 5 5 1 5 5 2 3 2 4 2 2 0 0 1 2 1 4 3 4 4 6 10 8 6 6 5 5 4 3 3 6 10 9 9 11 10 9 9 9 9 10 10 8 8 10 10 11 10 10 13 13 13 13 13 14 14 15 15 15 15 14 15 15 14 14 14 15 16 16 16 16 16 16 16 17 17 17 17 16 17 17
6 3 4 2 1 2 4 1 2 1 3 7 0 1 7 7 8 6 7 5 4 3 2 2 2 5 1 2 1 1 4 3 5 2 7 5 11 11 8 6 7 6 4 4 3 4 5 9 9 9 12 11 10 9 9 10 9 8 8 10 9 9 9 11 12 12 13 13 13 13 13 14 14 14 15 15 14 14 14 15 15 14 15 16 16 16 16 16 16 16 17 16 16 16 16 16 16
1 4 5 3 2 3 3 2 2 3 2 6 1 1 6 6 6 11 7 1 2 1 3 2 2 3 3 2 1 2 1 4 6 4 7 8 10 10 9 6 7 6 5 4 3 4 6 9 9 9 11 10 10 9 9 10 8 7 11 12 10 11 11 11 12 12 13 13 13 13 13 13 13 13 14 14 13 13 14 14 14 13 14 14 15 15 15 15 16 16 16 16 16 16 16 16 16
2 1 2 1 1 3 2 1 3 5 0 5 1 2 2 6 7 9 10 5 3 3 2 1 0 2 1 2 3 1 3 2 1 7 10 10 10 10 10 7 8 6 5 4 3 4 6 7 7 9 11 11 10 10 10 9 9 7 6 8 11 11 11 10 11 11 11 12 12 13 13 13 13 13 13 13 13 13 14 14 14 14 14 14 14 14 14 15 15 16 16 15 15 15 15 15 15
6 7 1 4 1 3 2 1 2 3 7 3 7 6 4 6 8 10 9 3 1 1 3 6 1 2 3 2 2 1 3 3 3 11 11 11 11 11 8 8 8 6 5 4 3 3 5 7 7 9 10 9 9 11 9 9 10 8 6 4 9 10 9 9 10 10 10 11 11 12 12 12 12 12 13 13 13 13 13 13 13 13 13 13 14 14 14 15 15 15 15 15 14 14 14 14 14
2 2 1 2 4 1 3 3 1 3 3 4 4 2 5 7 7 4 10 3 2 4 4 3 2 0 3 3 2 2 1 3 9 11 10 11 12 11 9 9 6 8 7 5 3 3 4 6 7 7 8 9 9 11 10 10 10 9 7 5 8 7 7 8 9 9 9 10 10 10 10 11 12 12 12 13 12 12 13 13 12 12 13 13 13 13 14 14 14 14 14 14 13 13 13 13 13
1 5 2 3 2 1 2 4 4 4 3 5 7 8 6 7 6 6 2 2 1 5 2 2 1 4 4 2 3 2 4 6 11 11 11 12 11 11 9 7 7 7 8 7 4 3 4 5 7 7 7 8 9 9 9 9 10 10 7 6 6 6 8 9 8 9 8 8 9 10 10 11 11 12 12 11 11 12 12 12 12 12 13 13 13 13 13 13 13 13 13 13 12 12 12 12 12
0 1 1 4 2 5 4 2 4 7 8 2 2 0 4 10 5 5 4 5 3 1 6 6 1 8 4 2 2 2 0 7 10 10 11 11 10 9 9 8 8 7 7 6 4 4 4 3 5 7 8 8 8 8 8 8 9 10 9 7 7 5 8 10 9 9 8 6 8 10 10 11 11 12 12 11 10 11 12 11 11 11 12 12 12 12 12 13 13 12 12 12 11 11 11 11 11
3 1 5 4 2 2 1 0 3 3 6 3 2 1 5 8 8 5 7 2 5 6 4 9 2 1 3 4 2 3 4 7 6 9 10 10 8 7 8 9 9 8 6 5 6 4 4 3 4 4 6 8 7 8 7 9 10 10 8 9 7 5 5 9 9 8 8 7 9 9 11 11 11 11 12 10 9 10 10 10 9 11 12 12 11 11 11 12 12 12 11 11 10 10 10 10 10
3 5 4 3 3 4 4 1 1 2 2 1 2 2 6 4 4 8 8 6 6 7 2 4 5 4 2 2 3 2 7 7 7 9 8 9 7 8 9 8 9 8 6 6 7 5 4 4 3 4 5 5 4 6 8 10 10 9 9 8 7 6 9 9 9 9 10 11 10 10 9 9 9 10 10 9 8 8 8 7 8 9 10 11 11 10 11 11 12 12 11 11 10 9 9 9 8
1 2 5 4 1 1 3 2 0 1 1 0 0 7 4 2 5 5 8 7 8 3 1 1 4 3 4 8 3 6 8 9 9 9 9 8 8 8 8 7 8 8 6 7 6 5 5 5 4 3 4 5 5 4 4 8 10 9 9 9 9 9 9 9 9 9 8 8 9 9 9 10 9 9 8 9 7 8 8 7 7 6 9 10 10 10 10 11 11 11 11 11 10 10 9 8 8
4 5 3 3 2 3 3 2 2 2 3 3 1 2 2 1 2 5 5 2 1 1 1 3 0 2 1 5 1 5 11 11 10 9 9 10 8 7 7 7 8 8 7 7 7 7 5 5 4 3 4 5 5 5 5 5 7 9 9 9 10 9 9 8 9 8 8 8 8 9 8 7 7 6 8 7 8 7 7 6 7 5 7 9 9 9 9 9 10 11 11 11 11 10 10 9 8
2 3 1 3 2 3 3 3 6 1 3 3 3 2 6 4 1 2 1 0 6 3 0 1 3 1 3 2 1 2 12 11 11 11 11 8 8 6 5 5 6 7 6 8 8 7 7 6 5 4 4 5 6 6 6 5 6 8 7 9 10 9 9 8 9 9 8 7 7 7 7 5 4 3 4 4 6 5 6 8 8 9 9 7 8 8 8 8 10 11 11 10 10 10 9 9 9
1 2 5 1 3 4 5 5 8 1 1 2 1 3 0 4 0 0 0 4 4 1 2 3 1 2 2 3 3 7 12 14 12 12 10 9 8 7 7 7 7 9 8 8 8 8 7 6 6 5 4 5 6 5 4 5 6 6 7 6 6 7 7 7 6 5 4 4 5 5 3 3 3 3 3 4 4 4 5 7 8 8 8 8 8 8 8 8 10 10 10 10 9 8 9 4 4
3 2 3 6 5 2 3 1 5 1 1 1 1 2 3 2 5 2 2 1 1 2 3 1 1 2 4 3 8 11 14 12 13 11 13 12 10 10 9 8 8 8 8 8 8 10 7 7 7 6 5 5 6 5 4 5 6 5 5 5 5 6 5 6 5 5 4 4 3 3 3 3 3 3 3 3 4 6 6 7 8 9 9 9 9 8 8 9 9 8 8 8 7 8 5 4 3
2 5 4 3 7 3 4 3 1 5 2 1 1 0 2 3 4 2 2 2 0 7 6 2 5 7 6 5 8 12 13 14 11 12 12 13 10 11 11 10 10 9 10 10 9 8 9 7 9 8 6 6 5 6 4 4 4 5 4 4 4 5 4 4 4 4 4 4 4 3 3 3 3 3 5 6 5 3 4 6 7 7 8 8 7 4 6 7 7 7 8 6 4 5 2 2 2
1 2 5 5 5 2 2 4 5 3 4 1 1 0 2 3 4 3 4 4 6 8 8 12 14 12 10 10 12 12 13 14 12 11 12 12 10 8 8 10 9 9 9 9 8 9 10 10 7 9 7 6 6 5 5 5 4 5 4 4 4 4 3 3 3 3 3 4 4 3 4 4 4 3 3 2 2 2 2 2 2 2 2 3 5 3 3 3 3 3 3 4 3 3 4 3 2
4 1 3 6 5 1 2 4 3 1 2 1 1 1 3 1 2 4 10 8 9 9 8 9 6 8 13 13 14 12 14 15 17 13 13 14 14 12 8 7 6 8 7 8 11 9 10 10 9 8 8 7 7 8 6 6 5 5 6 4 4 3 4 4 4 3 3 3 4 4 4 4 3 3 2 2 2 2 2 1 1 1 1 2 3 3 2 2 2 3 3 3 3 2 2 2 2
4 1 1 2 3 2 2 3 3 1 0 1 1 3 3 4 2 4 7 13 2 2 4 7 7 9 9 11 14 14 14 16 17 17 15 15 14 13 11 8 8 9 9 9 9 9 10 10 10 8 9 8 9 7 6 5 6 6 4 5 5 5 4 4 4 4 3 4 4 5 6 5 4 3 3 3 2 2 2 1 1 1 1 1 2 2 2 1 1 2 2 2 2 2 2 2 2
3 6 5 6 5 3 4 2 3 1 5 3 2 1 2 3 4 1 7 8 2 4 5 6 6 11 12 14 15 18 18 18 21 19 18 17 17 16 13 11 8 5 9 10 9 9 9 11 11 10 9 9 9 8 7 6 6 6 6 4 4 5 5 5 4 5 5 5 5 5 5 5 5 4 4 4 3 2 3 2 1 1 1 0 1 1 1 1 1 1 1 1 2 2 2 2 1
5 3 6 2 3 4 3 3 3 2 6 2 0 1 2 6 3 2 9 8 3 3 4 5 8 10 10 12 15 14 14 14 14 13 10 9 10 11 10 8 9 8 9 10 10 9 10 9 11 12 10 11 10 8 8 7 7 7 6 6 6 5 5 5 5 5 5 5 5 5 5 5 4 4 5 4 3 3 3 2 2 2 1 1 1 0 1 1 1 0 1 1 1 2 0 2 2
4 4 5 4 3 3 1 0 1 4 1 3 3 4 4 5 2 4 11 3 6 4 6 6 7 9 12 14 15 15 15 16 15 12 15 11 9 12 12 11 10 12 9 9 9 10 9 10 11 12 12 11 10 8 8 7 7 8 9 9 7 5 7 6 5 5 5 5 6 6 5 4 5 5 5 4 5 4 3 3 3 3 2 2 2 2 2 1 1 1 1 1 1 1 1 1 1
4 4 5 5 2 1 1 1 2 2 2 4 3 0 0 1 1 6 1 4 5 4 6 4 8 11 11 10 11 12 14 15 18 15 9 9 10 12 12 11 12 12 10 9 9 9 9 10 11 11 11 10 8 9 8 9 8 9 8 8 8 7 6 6 6 6 6 6 6 6 7 5 4 4 5 5 4 4 4 4 4 3 3 3 3 2 2 1 1 0 0 0 0 1 1 0 1
5 7 2 0 4 2 1 0 1 1 0 3 3 0 1 1 1 7 2 2 3 8 6 7 7 8 9 9 10 9 9 10 8 10 15 13 12 14 14 13 13 12 12 10 8 7 9 12 12 13 12 10 10 11 8 9 9 9 8 7 8 9 8 6 6 6 7 6 6 7 7 6 5 4 4 5 5 5 5 5 4 4 4 4 3 3 2 1 1 1 1 0 0 0 1 1 0
3 3 3 2 2 2 1 1 1 1 0 3 3 1 1 1 6 3 0 1 3 5 6 5 7 6 8 8 8 8 10 8 8 10 15 14 11 10 15 14 13 13 8 11 9 10 11 12 11 12 12 11 13 13 11 10 9 8 8 8 8 7 8 8 7 7 7 7 7 8 7 8 6 5 6 5 5 4 5 5 4 5 5 4 3 3 2 1 1 1 1 0 0 1 1 2 0
3 4 2 1 2 2 3 1 0 2 1 3 2 5 5 8 14 1 3 2 3 5 6 7 7 6 6 7 8 8 6 7 11 13 11 11 12 12 14 13 13 12 9 8 10 12 9 6 8 9 12 13 13 11 10 9 9 8 7 8 7 8 8 8 9 8 7 7 7 8 8 8 7 6 5 6 4 4 5 5 4 4 4 3 2 3 3 2 2 2 2 1 2 1 2 2 1
2 1 3 1 2 4 2 2 1 4 3 4 1 4 5 6 9 5 1 2 6 8 8 8 7 6 6 7 7 8 9 10 13 12 9 10 10 9 13 11 13 12 9 9 12 12 11 9 8 8 10 13 12 12 12 11 9 9 9 8 8 8 8 9 10 9 8 8 7 7 8 7 8 7 6 5 6 6 6 6 5 5 3 3 3 3 3 2 2 3 2 3 2 2 2 2 2
1 4 3 2 4 5 5 3 4 5 0 3 3 2 7 8 8 3 3 2 3 6 6 7 7 7 7 7 8 8 10 9 9 7 9 10 10 10 12 14 12 12 14 12 12 10 12 11 10 10 11 13 13 13 13 11 11 10 9 8 8 9 8 9 8 9 9 8 7 7 8 8 8 8 8 7 6 6 5 4 5 3 4 3 3 3 3 4 3 3 3 3 3 3 2 3 1
5 3 0 3 1 5 4 1 2 1 3 1 6 5 2 4 1 2 1 4 1 4 6 5 6 5 6 7 8 8 7 9 8 9 10 10 11 10 12 13 14 16 15 13 13 11 11 12 11 13 13 13 12 13 12 10 9 9 9 9 10 9 10 10 9 9 9 8 8 8 8 8 9 9 8 9 8 7 7 5 4 4 4 4 4 3 4 3 3 3 3 3 3 3 3 4 4
1 1 3 5 7 3 3 4 0 1 2 3 1 3 6 4 4 2 2 5 4 6 8 6 7 7 7 6 7 8 9 9 12 12 13 13 10 13 11 10 13 13 12 14 13 14 14 13 12 12 12 12 11 11 11 11 9 9 9 9 9 10 11 10 9 8 9 8 7 8 9 9 8 9 9 9 8 5 5 5 4 5 4 4 3 3 3 2 3 3 3 3 4 4 3 4 4
6 5 3 3 2 3 4 4 1 1 2 1 1 3 7 10 9 7 5 5 6 8 7 8 8 9 8 8 8 10 9 11 14 12 13 13 11 10 9 10 10 11 12 13 12 12 11 11 11 11 11 12 12 11 11 11 10 10 9 10 10 11 8 9 8 8 8 7 8 7 7 8 8 9 9 9 8 5 5 6 5 6 5 4 4 3 3 3 3 4 5 5 2 3 3 3 3
12 12 8 4 8 5 6 4 1 1 1 2 3 5 7 10 11 10 1 3 6 7 3 6 8 7 8 9 9 8 10 13 12 8 8 8 9 9 10 9 9 9 10 10 11 11 11 10 10 10 10 11 10 11 11 10 9 9 11 9 10 10 8 8 8 8 8 8 8 7 6 8 8 8 9 9 9 7 6 6 7 6 5 5 5 5 4 4 6 5 6 4 3 3 3 2 2
4 3 5 5 6 2 3 3 1 0 1 5 7 6 7 9 10 12 3 2 2 5 7 7 7 8 9 9 9 10 10 16 4 7 7 8 9 10 10 9 9 9 9 10 11 12 12 13 11 12 12 12 10 11 11 11 12 11 9 12 12 10 8 8 7 7 8 8 8 9 8 7 8 9 9 9 8 8 6 6 6 6 5 6 5 6 7 6 5 5 3 3 4 2 2 2 2
7 6 4 2 4 5 4 3 1 1 2 3 1 3 9 12 12 13 5 4 9 9 8 8 9 9 8 8 11 12 15 4 5 8 6 7 9 10 10 9 10 12 11 12 14 15 15 13 14 14 11 12 13 12 9 9 9 10 8 8 7 8 7 8 8 8 8 7 8 9 8 9 8 7 7 8 8 8 7 6 6 6 7 5 7 6 5 5 5 5 5 3 2 4 3 4 3
3 5 4 3 4 3 6 2 2 1 2 8 0 3 9 10 12 12 7 8 7 8 9 11 10 9 9 9 12 13 7 10 7 12 8 9 9 10 10 10 11 13 13 15 15 13 12 13 13 14 13 13 13 12 11 11 10 11 11 9 9 6 7 8 8 8 8 9 11 10 9 9 10 8 9 8 7 7 7 7 7 7 7 6 5 6 6 5 6 7 6 6 3 2 2 2 4
6 5 5 7 3 5 4 2 0 1 1 2 1 4 9 9 9 13 12 8 7 9 10 12 8 11 11 14 12 9 11 12 13 14 11 11 11 10 9 10 12 12 13 12 12 13 12 13 14 14 14 12 12 13 13 13 12 11 11 10 10 10 7 8 9 9 9 10 10 10 9 9 10 9 10 10 8 8 9 8 7 7 6 7 7 7 7 8 7 6 6 6 5 3 3 4 4
2 7 4 5 3 3 4 1 1 2 1 1 2 6 9 7 9 8 6 2 5 8 5 7 7 8 10 5 5 9 14 12 12 12 9 10 11 13 15 14 10 11 13 14 14 14 12 17 17 16 13 14 13 13 14 12 9 8 9 8 6 7 6 6 7 8 10 10 9 9 9 9 10 10 10 10 9 8 8 9 7 7 6 6 6 6 5 6 7 6 7 5 6 6 5 4 2
3 3 6 7 5 4 2 0 1 1 4 1 1 4 9 5 9 11 7 2 4 4 5 9 11 9 8 10 13 11 10 10 12 13 11 9 11 10 8 9 12 14 15 16 15 16 16 15 15 14 11 11 13 14 14 11 11 12 10 10 10 9 10 8 11 12 11 9 10 8 8 9 9 9 9 9 9 8 8 9 8 9 8 7 6 6 7 6 7 7 8 8 8 7 6 4 4
6 7 8 9 8 6 4 1 3 2 4 1 1 10 8 5 5 6 6 6 10 7 4 8 8 8 7 10 12 12 12 12 10 12 8 6 9 9 10 12 15 14 16 13 11 14 16 14 13 13 13 13 13 13 13 12 12 12 15 14 13 12 12 11 9 9 9 8 7 8 8 9 10 10 9 8 8 9 9 8 9 9 9 8 8 8 8 8 6 7 5 5 7 6 5 5 6
6 3 11 5 7 6 4 3 3 3 2 2 2 1 4 10 10 5 5 4 8 9 8 8 10 10 10 10 12 12 12 12 10 12 10 8 8 10 14 14 12 16 12 7 12 12 14 15 14 14 12 12 12 12 13 14 14 13 13 14 13 13 14 13 11 10 8 7 8 9 8 8 9 10 9 9 9 8 8 7 7 6 6 7 8 8 9 7 5 6 7 6 3 4 7 7 7
4 4 11 8 8 5 5 3 2 0 4 8 2 1 3 7 8 5 1 11 10 10 9 8 9 11 12 11 12 13 13 11 7 9 10 9 9 11 11 10 11 9 8 12 13 12 12 12 12 11 12 12 12 13 13 14 14 14 13 12 13 12 12 11 8 8 9 9 10 9 9 8 8 9 9 9 9 9 9 8 8 8 7 6 5 6 7 7 9 8 6 6 7 6 7 7 4
2 6 5 6 6 5 3 2 1 2 1 6 3 1 4 9 5 3 2 4 12 10 10 10 10 11 10 11 12 12 9 8 7 9 10 9 8 8 9 8 8 11 10 9 10 9 10 11 13 14 15 12 12 13 14 15 15 13 13 14 15 13 10 8 7 9 9 8 10 10 9 8 8 8 8 9 9 9 9 9 8 8 9 8 7 8 8 8 8 8 9 9 9 9 7 7 8
7 8 9 5 5 3 4 4 3 2 4 5 5 6 3 8 5 9 9 9 10 10 7 7 7 7 9 10 11 11 9 6 6 8 9 9 7 7 5 9 10 7 7 8 10 11 10 11 13 14 17 13 12 14 14 15 14 14 14 15 17 15 13 11 10 9 7 7 10 9 9 8 7 8 8 8 9 9 9 9 8 9 8 7 7 7 7 6 6 7 8 7 6 8 6 7 6
10 3 6 8 3 2 3 2 2 2 6 6 3 4 7 9 4 7 8 3 4 9 12 14 12 12 11 9 10 9 5 5 5 6 9 8 7 7 4 8 8 7 6 9 10 9 10 11 12 14 14 14 13 14 14 15 14 15 15 16 16 15 14 12 13 13 11 12 11 9 7 6 7 7 7 7 7 8 8 8 9 9 7 7 8 7 7 7 7 6 5 6 6 7 6 6 6
5 8 8 9 2 3 2 0 3 7 5 1 1 1 1 18 6 6 4 9 8 7 8 9 10 11 10 7 3 4 5 5 6 7 7 6 7 8 6 7 6 6 9 9 10 9 10 11 13 14 15 15 15 14 15 16 15 16 16 16 16 13 14 14 14 13 11 11 9 9 8 8 7 7 7 8 9 9 8 8 8 8 7 8 8 8 8 8 6 6 6 6 6 7 7 7 6
8 9 8 8 6 4 5 4 1 5 4 3 0 1 6 4 5 12 15 14 13 10 9 9 7 8 8 4 1 4 6 6 7 6 7 8 7 7 7 7 7 6 7 8 8 9 9 10 12 14 16 13 12 13 15 14 16 16 15 14 13 12 13 13 12 12 11 10 9 10 10 10 10 11 10 10 10 9 8 9 8 8 8 7 7 7 7 7 6 6 6 6 7 7 6 6 6
10 3 10 8 8 6 11 8 12 8 5 1 3 2 8 2 4 1 8 8 7 4 5 5 7 9 9 5 6 7 8 8 5 6 8 9 9 7 8 7 7 7 7 7 8 8 8 10 11 13 13 12 13 14 12 15 14 14 12 12 12 11 12 11 11 10 9 9 9 10 10 9 9 10 10 10 8 9 9 8 8 8 8 7 7 7 6 6 6 5 5 6 5 5 5 5 4
3 4 5 4 10 4 6 3 3 2 3 0 2 7 3 5 3 7 6 6 6 6 7 5 10 7 3 7 8 8 8 8 6 7 8 9 8 8 8 7 8 7 7 6 7 8 9 10 10 11 13 11 11 11 12 13 13 11 12 13 13 12 10 9 8 7 8 9 10 10 10 10 10 9 9 7 8 9 8 8 8 8 8 7 7 6 6 6 6 6 5 5 5 4 6 6 5
7 6 11 4 2 9 6 2 1 4 3 8 2 8 7 7 8 13 4 1 6 5 5 7 10 6 4 7 10 8 4 5 6 8 8 8 7 8 8 8 6 6 6 8 8 8 9 9 9 10 10 8 9 10 12 11 11 10 12 12 11 10 10 11 10 10 10 9 9 9 9 10 9 8 8 8 8 7 7 8 8 8 7 7 7 6 7 6 7 6 5 6 6 5 6 7 6
8 6 10 1 2 6 4 3 2 2 5 7 3 11 4 1 11 3 4 7 10 7 10 4 4 2 4 8 8 8 7 6 6 7 8 8 8 8 8 7 7 7 7 7 8 7 7 7 8 9 8 10 9 8 9 10 10 11 10 10 10 11 10 10 9 9 8 8 8 8 6 7 8 9 8 7 7 8 7 8 7 7 7 7 7 6 7 8 7 6 7 6 7 7 5 4 5
10 8 5 9 5 7 2 5 2 5 3 4 4 3 6 9 10 1 1 7 12 13 5 1 5 4 6 8 9 7 7 6 5 5 6 7 6 7 7 8 7 6 6 6 5 5 6 6 7 8 9 9 8 7 7 7 8 9 9 10 10 9 8 8 7 6 7 8 9 8 9 9 7 6 7 7 7 7 7 7 7 7 7 7 7 7 7 7 7 7 6 6 5 6 6 5 3
2 3 6 0 1 1 6 6 3 6 5 1 7 4 9 7 8 8 7 6 10 9 6 7 9 9 8 7 7 6 5 5 6 6 6 7 7 7 7 7 7 5 5 4 5 3 5 5 6 7 5 4 4 5 6 7 7 6 6 6 7 8 8 8 8 9 8 9 9 9 8 7 8 7 7 8 8 8 8 8 7 7 7 6 7 7 7 7 6 7 7 7 5 6 7 7 5
4 6 7 2 0 2 5 1 3 4 5 5 1 5 6 7 7 11 16 14 11 10 8 8 5 5 6 7 7 6 4 5 6 6 7 7 7 7 6 5 5 5 4 3 2 2 3 3 4 5 7 7 7 7 6 7 6 7 7 9 8 8 9 9 10 10 10 10 9 9 9 9 7 8 8 8 8 9 8 8 8 8 8 7 7 6 6 6 6 7 6 7 7 6 7 5 6
7 8 9 8 7 5 10 9 3 2 4 3 5 10 3 7 5 10 8 8 8 7 5 2 2 6 8 6 6 6 6 6 6 5 5 6 6 6 5 4 4 4 3 3 2 2 2 3 4 4 4 5 6 6 7 7 7 8 9 9 9 8 9 9 10 9 10 9 9 9 9 7 9 8 8 9 8 7 7 7 8 7 6 7 6 8 7 6 7 7 6 6 8 6 7 6 6
Wind_Direction
320 345 350 115 70 100 58 1 169 332 58 87 290 91 172 13 210 86 106 29 140 256 196 55 138 151 182 197 199 168 302 138 199 140 200 223 231 146 118 134 134 131 149 161 43 43 60 114 119 121 115 113 105 101 107 113 122 110 102 102 101 92 93 95 96 96 100 96 90 89 90 90 91 93 95 93 89 88 88 85 86 86 85 84 82 79 78 77 77 78 79 79 78 76 74 74 74
301 319 60 41 30 42 299 127 98 346 39 87 230 90 248 283 72 210 172 183 199 172 176 109 92 88 61 42 114 141 66 14 170 124 71 112 110 114 142 146 146 146 148 138 94 91 66 119 121 123 119 115 113 126 120 107 102 93 100 104 101 100 104 91 90 92 97 96 96 94 94 94 94 93 96 97 92 90 88 85 84 86 88 87 84 82 78 77 79 81 83 82 81 78 75 75 77
11 348 54 36 44 69 100 28 271 8 81 87 272 209 4 161 205 202 199 203 205 168 124 108 106 43 355 305 180 306 178 121 158 230 120 135 135 169 158 147 144 139 135 126 106 92 109 122 127 125 119 119 121 117 106 105 102 102 109 117 109 103 103 99 98 104 97 87 91 95 91 90 89 87 86 91 96 91 88 86 80 81 83 84 84 82 80 80 80 82 83 83 81 80 79 79 79
97 27 110 55 286 36 48 25 85 127 117 199 304 268 196 183 225 188 223 255 146 106 183 151 149 238 101 258 228 105 75 149 167 145 137 167 176 149 154 149 132 126 117 114 117 97 118 125 127 125 121 119 123 126 126 117 116 116 105 83 92 109 104 102 107 106 99 98 92 90 90 90 90 89 90 93 94 94 91 89 87 83 81 82 84 84 81 80 81 81 82 84 82 83 83 83 82
67 360 59 97 104 9 104 102 131 98 70 196 97 259 235 209 190 194 114 161 170 60 31 159 84 358 171 130 206 167 194 113 171 183 145 150 112 152 148 142 133 130 128 115 98 111 124 124 127 127 125 124 128 128 131 127 120 106 89 91 107 108 106 111 111 100 98 102 100 97 94 93 92 91 92 94 95 95 91 90 87 85 86 84 84 83 82 80 80 81 81 82 84 84 83 82 82
58 50 7 73 39 163 69 70 56 151 214 155 143 247 215 201 166 175 144 184 239 262 227 125 169 188 176 302 204 97 180 155 180 209 157 158 146 153 149 140 131 128 129 106 111 114 118 125 130 134 130 127 128 130 129 126 118 106 105 100 111 109 107 102 89 99 103 101 101 95 94 93 93 91 91 92 95 97 94 89 88 85 84 85 85 83 81 81 82 82 82 82 83 83 84 83 82
30 44 4 29 38 49 169 139 228 188 272 166 193 235 215 188 184 135 156 168 266 106 118 229 127 107 77 291 43 256 240 127 159 174 154 144 138 149 149 138 130 133 134 117 128 106 125 131 139 136 131 132 131 134 138 131 128 119 117 109 107 113 106 109 105 102 99 97 97 98 96 95 90 90 90 90 93 96 95 91 86 84 83 82 83 82 81 81 82 81 81 82 83 83 83 84 83
56 109 329 113 299 35 57 136 244 175 333 183 343 246 221 204 156 156 166 143 200 179 200 250 149 105 226 67 158 269 18 239 285 109 110 141 140 149 154 143 134 142 135 128 122 106 117 126 137 136 138 138 135 131 131 124 121 115 94 106 108 110 111 109 106 105 104 104 103 103 99 98 99 98 97 94 96 100 97 93 90 87 85 81 79 82 83 83 84 84 83 84 84 83 83 81 80
8 84 278 74 52 28 67 269 273 246 289 293 270 226 287 183 175 147 165 230 9 233 135 172 265 175 224 66 170 289 318 323 154 115 128 139 146 153 155 157 145 147 139 131 117 100 108 125 134 138 140 138 135 134 133 133 132 131 128 120 124 119 116 114 110 108 110 110 106 108 107 103 101 102 101 100 99 100 99 95 96 94 88 85 85 84 87 87 86 85 85 85 86 86 83 82 82
48 44 222 121 129 243 2 295 130 218 228 230 235 227 195 165 168 164 156 136 208 120 188 70 146 169 109 156 310 9 27 132 134 122 134 145 154 157 156 158 152 145 143 137 130 114 103 125 131 130 136 138 142 139 136 130 134 130 125 135 82 67 110 107 107 110 110 105 105 109 110 105 102 98 99 103 102 100 101 100 96 97 96 91 86 89 92 92 92 90 89 88 88 88 87 86 85
28 17 127 86 31 75 233 261 259 311 250 313 278 235 218 147 137 139 116 149 27 147 169 169 68 142 109 257 247 273 280 158 143 149 144 148 157 160 153 148 145 149 143 141 136 110 98 118 130 127 128 140 144 137 131 130 134 123 129 126 112 90 91 96 102 107 107 109 114 107 95 101 102 99 97 97 103 104 101 102 102 100 97 95 91 91 95 96 94 91 89 90 90 90 90 90 89
333 20 16 98 166 164 227 200 271 280 295 333 262 224 203 154 120 131 184 145 197 143 174 166 229 140 78 331 278 337 203 163 157 144 144 145 161 159 148 148 150 145 144 140 134 116 99 97 119 128 122 116 113 121 133 134 122 127 131 131 123 108 101 92 91 93 96 105 118 106 108 103 98 92 92 88 91 101 101 99 101 107 103 94 92 88 89 89 88 87 90 92 92 92 93 93 92
105 80 88 100 196 152 186 48 254 304 323 282 190 224 136 142 183 175 156 105 140 127 266 206 131 85 175 181 271 306 202 180 153 138 136 148 154 147 148 150 155 148 146 147 139 125 114 105 104 117 126 123 113 110 127 130 120 123 131 131 127 110 95 98 97 96 95 92 94 103 99 94 89 93 90 85 81 92 96 95 102 109 102 99 93 91 91 90 87 84 86 85 87 89 92 93 93
116 178 127 167 17 125 150 226 13 341 299 252 278 128 174 149 226 165 132 138 199 171 248 158 136 145 85 333 278 199 199 170 145 136 131 134 139 144 149 153 158 158 156 157 149 141 124 119 118 113 120 122 115 115 120 129 131 134 132 122 113 91 78 87 82 81 90 88 83 78 84 87 84 82 80 76 68 67 63 81 103 107 110 104 97 87 88 91 85 82 79 76 78 81 86 89 86
116 166 84 111 82 98 246 121 273 143 260 132 96 141 188 295 118 135 167 154 231 213 355 79 168 136 230 165 264 201 181 171 140 130 127 118 129 142 148 151 162 166 164 167 154 145 144 136 130 127 124 119 131 126 121 123 124 123 122 120 112 102 100 97 95 94 93 90 89 83 79 83 80 76 77 76 72 70 64 57 67 107 115 110 102 90 88 88 84 79 73 68 67 68 70 74 78
136 94 80 112 196 165 225 152 152 86 267 171 2 313 130 344 202 126 243 152 152 12 175 181 62 232 229 150 239 203 150 151 133 127 118 122 130 142 143 149 161 174 175 173 170 169 154 150 145 133 134 139 143 140 136 123 125 123 123 121 119 114 113 109 108 103 99 98 97 93 89 89 85 77 77 76 71 69 65 61 51 74 115 110 104 91 81 86 82 78 71 64 58 55 56 56 57
80 77 86 48 195 190 215 161 155 196 257 276 287 182 174 202 212 264 324 360 122 178 16 242 186 23 181 194 246 177 138 136 129 131 128 131 143 153 154 154 163 181 184 184 178 178 173 168 156 151 143 145 146 147 144 127 128 123 123 124 123 123 121 116 110 106 106 106 105 101 97 90 89 90 81 80 77 74 71 69 70 61 68 94 101 85 80 82 81 77 75 70 64 56 54 47 42
67 95 112 163 191 155 198 178 188 172 76 342 118 206 69 187 222 267 80 35 61 31 207 310 27 263 255 275 288 146 132 137 143 144 148 150 159 164 172 174 170 185 188 187 188 187 184 190 177 154 155 155 156 154 146 136 138 134 139 135 133 127 120 121 117 118 112 111 107 106 101 101 92 91 92 88 80 73 70 73 76 77 74 70 65 66 68 79 72 72 72 72 70 67 63 57 41
98 127 110 207 174 223 151 209 216 116 271 263 274 257 176 243 141 220 130 273 75 110 257 360 292 302 20 69 130 141 142 146 152 155 156 166 172 176 177 177 179 181 190 189 192 193 193 187 191 181 163 166 159 155 145 142 145 149 149 141 135 130 128 121 126 120 127 121 114 104 105 106 107 94 79 86 91 76 69 53 64 66 62 58 64 61 55 60 64 67 69 72 69 61 57 60 52
238 125 178 228 205 243 228 209 254 224 174 331 326 46 156 219 169 123 215 155 71 201 200 258 226 216 189 150 149 151 151 156 160 164 168 173 180 182 183 180 182 190 187 191 190 194 197 194 193 197 178 173 170 162 159 152 152 156 154 150 143 143 137 133 130 134 134 135 133 130 124 121 111 100 88 79 81 85 76 60 53 61 63 59 46 56 45 54 67 65 64 55 55 53 60 59 56
206 110 171 199 172 116 215 177 218 224 186 180 150 280 149 251 196 154 169 125 239 253 226 186 202 198 176 168 162 161 159 162 166 172 177 183 186 187 188 191 187 185 186 185 193 199 198 198 195 196 191 172 186 180 161 181 156 162 165 159 154 153 133 141 140 145 143 143 140 134 130 130 127 122 121 103 94 86 86 79 67 63 46 56 36 55 22 42 46 26 40 39 50 46 41 41 12
98 192 186 142 143 107 234 214 175 156 221 118 108 132 221 102 111 168 161 193 221 215 230 225 220 171 157 167 172 168 169 169 174 177 187 189 189 189 186 187 188 184 177 184 195 198 200 196 198 193 197 180 191 193 188 178 165 175 183 173 164 166 159 158 161 151 158 153 152 145 139 136 138 140 142 135 133 132 132 119 87 60 56 58 37 46 28 41 53 55 37 47 50 49 66 60 48
144 316 192 204 193 146 227 195 202 126 325 159 141 218 78 173 211 188 181 215 224 234 236 215 187 165 170 157 160 172 174 179 180 186 185 190 192 195 194 186 182 181 188 197 191 198 198 199 200 194 198 195 196 195 198 185 194 200 190 185 192 191 181 171 174 174 170 165 162 156 155 156 157 159 160 165 166 160 173 175 155 88 70 58 37 50 48 53 67 59 84 72 58 56 71 75 71
105 183 162 210 188 198 188 227 148 161 152 228 204 74 182 170 220 143 200 230 179 298 240 227 172 144 151 157 173 175 183 183 191 194 189 189 187 191 189 187 190 190 194 195 194 196 196 198 198 200 198 201 200 197 200 203 199 201 205 186 202 191 190 197 190 188 178 178 175 174 166 164 164 166 179 183 181 177 195 189 189 178 136 81 55 57 71 83 98 88 168 81 52 68 31 45 61
172 184 184 161 154 235 225 254 292 171 225 254 130 173 244 192 187 103 240 230 242 4 78 121 132 141 155 163 179 187 189 193 195 193 192 196 193 188 189 191 196 198 203 197 195 195 199 196 198 201 201 201 202 198 200 204 208 207 207 203 208 191 204 204 202 191 186 186 188 180 172 166 166 170 184 191 178 202 198 203 202 210 200 194 178 164 177 148 160 163 79 60 43 14 40 38 24
202 199 152 132 206 263 241 24 303 210 274 168 127 239 284 239 177 244 243 220 202 140 85 117 136 149 168 182 183 182 188 193 190 189 196 188 182 188 195 196 198 207 209 201 189 200 194 195 199 202 201 198 199 198 202 203 201 207 213 215 213 201 211 208 198 201 199 187 195 193 187 173 180 182 184 178 186 199 203 205 212 216 223 214 206 215 210 203 178 162 114 99 66 339 354 70 324
125 122 161 163 189 4 115 122 216 243 252 198 172 264 175 316 213 269 296 213 148 116 118 137 154 177 186 183 189 191 186 190 191 191 176 185 188 197 201 196 199 208 202 201 200 199 193 191 201 203 204 199 196 202 202 205 202 207 209 210 214 212 205 202 207 207 203 202 197 193 193 191 171 182 179 178 191 196 200 206 214 212 228 224 215 218 202 193 173 170 122 61 356 314 329 350 320
83 139 87 329 313 251 229 123 293 64 243 209 149 131 292 310 83 241 199 116 182 148 155 165 180 185 191 194 193 196 201 200 185 175 190 183 195 197 199 199 201 203 203 203 197 190 187 197 201 202 203 199 196 201 198 201 202 207 205 207 210 214 205 206 210 209 208 206 198 196 196 195 190 182 174 184 194 196 202 208 209 210 226 224 217 210 196 205 199 134 132 97 125 256 285 266 222
141 137 151 300 6 262 43 160 180 149 248 159 165 78 340 232 232 258 351 129 130 149 168 189 195 199 196 196 194 196 205 187 186 199 201 199 194 195 201 200 199 201 200 199 194 189 190 195 200 202 201 202 201 202 202 203 205 205 202 207 209 203 207 212 214 214 212 207 200 198 198 197 195 193 197 184 193 198 202 205 211 218 223 219 210 206 193 186 176 178 185 170 132 193 253 253 221
113 46 128 21 5 315 242 144 281 144 223 165 170 263 265 238 239 352 315 126 105 138 189 198 205 201 203 198 199 206 190 180 203 210 202 199 200 198 203 199 201 203 197 197 195 204 196 191 195 198 199 201 203 205 200 201 203 205 206 209 208 203 207 212 218 218 215 209 203 201 199 199 198 202 189 201 194 198 207 208 208 217 215 203 187 186 207 188 210 211 220 212 238 257 262 270 286
139 229 59 180 99 250 264 166 156 151 178 201 137 213 280 271 264 276 341 286 171 191 209 207 206 206 201 200 206 208 210 206 212 209 202 204 205 202 205 202 202 202 199 200 203 202 196 198 193 200 193 201 201 205 203 204 201 204 206 208 208 205 206 211 218 220 215 211 203 203 201 199 200 201 197 186 201 202 204 212 213 221 187 190 190 192 194 193 202 221 200 224 223 241 249 257 274
38 101 279 335 158 277 283 252 190 173 244 204 125 264 231 258 278 341 336 360 308 239 220 218 213 209 203 201 209 214 217 220 229 215 207 210 205 203 200 203 199 200 204 202 206 200 203 203 199 205 193 199 202 204 205 205 203 204 207 207 210 208 211 214 216 218 216 211 201 205 202 200 199 200 197 194 199 201 202 199 215 200 185 182 195 183 184 202 195 210 206 204 223 235 248 252 164
5 124 180 205 149 250 344 272 313 294 123 360 185 210 320 294 234 352 311 143 225 277 275 257 253 236 217 216 215 218 223 231 231 220 215 211 211 205 204 203 200 203 203 203 203 198 205 205 202 208 205 203 204 204 204 205 203 204 206 207 212 209 213 215 217 216 216 209 203 205 202 200 200 198 196 195 198 198 203 208 212 190 173 188 184 183 203 202 186 197 206 194 206 224 202 254 250
166 357 155 205 182 195 226 298 318 25 86 191 343 205 233 246 266 238 293 173 165 221 248 253 250 242 231 226 224 222 221 225 227 216 216 212 212 209 208 203 203 202 204 205 203 201 204 204 205 206 209 206 206 204 203 206 205 204 206 210 205 211 212 214 216 211 212 209 200 207 202 201 200 199 197 196 196 189 192 200 192 174 176 182 183 184 207 160 201 193 213 197 198 199 220 227 254
172 171 178 259 277 216 220 172 221 71 32 178 19 233 271 280 276 262 224 175 169 224 230 238 240 235 235 231 228 227 225 224 232 220 216 214 212 209 208 204 203 201 205 204 201 202 203 205 206 206 207 207 207 205 205 208 207 209 210 209 208 211 212 213 213 213 212 209 210 203 196 202 200 200 198 195 198 188 191 200 197 181 178 179 182 196 196 192 201 206 210 208 211 264 232 225 245
178 179 184 153 166 208 210 243 278 183 134 192 197 216 241 252 268 270 110 221 193 239 277 267 252 247 241 233 236 231 230 238 238 228 222 211 209 206 209 207 206 204 203 200 203 201 204 203 202 205 206 207 204 205 203 204 203 202 205 202 213 211 207 205 207 212 209 212 211 203 201 204 201 199 198 197 200 195 194 197 206 185 178 172 182 193 203 190 199 205 225 198 182 209 233 238 225
143 96 94 158 169 281 281 262 257 136 87 232 211 226 233 254 254 264 203 151 242 263 257 249 256 254 242 237 235 236 235 236 238 229 219 204 206 208 210 205 209 205 202 198 201 206 204 204 195 206 205 204 203 202 202 198 200 204 209 207 212 210 205 202 204 205 208 212 208 212 210 207 202 201 199 194 199 197 199 199 198 188 182 183 182 197 201 196 196 196 199 193 211 218 250 211 217
139 144 131 139 175 210 233 196 6 321 157 289 332 213 243 242 253 258 219 194 249 239 237 243 246 245 253 248 244 234 235 265 248 251 227 209 209 206 201 205 201 203 208 200 204 206 205 201 203 210 204 204 206 205 201 200 201 203 200 208 207 213 202 198 209 209 207 205 207 206 207 210 201 196 188 196 198 193 191 194 191 188 187 193 207 207 186 191 183 183 166 188 195 204 218 189 175
120 150 165 141 244 243 281 270 320 301 83 258 342 249 258 249 256 263 250 213 235 230 211 229 224 235 240 239 245 247 251 246 231 242 218 211 209 208 203 206 208 211 209 208 211 207 205 205 210 211 209 204 206 205 204 208 206 207 208 209 205 211 205 203 209 205 200 210 211 205 206 206 207 209 204 194 195 194 193 192 199 197 194 191 187 194 186 191 192 198 184 197 171 227 242 192 180
135 99 131 202 220 143 269 294 10 357 148 275 185 304 279 272 251 253 256 209 232 234 223 237 212 227 227 232 228 240 243 244 238 235 219 207 206 206 205 209 210 207 213 215 211 209 208 212 210 210 211 205 206 205 206 211 208 209 211 212 208 205 201 200 207 205 203 208 214 208 209 204 203 209 205 200 196 195 194 196 194 194 192 187 192 201 190 198 184 186 194 210 187 182 198 220 198
206 162 152 155 144 226 150 219 323 326 327 34 289 300 283 238 262 267 251 241 255 261 260 265 259 238 249 289 294 229 236 232 239 247 223 200 200 208 205 208 200 208 213 213 208 207 209 211 210 207 207 206 206 204 204 204 202 209 213 217 215 216 206 196 202 211 211 209 208 204 209 205 208 210 206 202 202 197 191 191 188 193 192 197 202 214 198 197 193 193 187 186 189 219 211 209 168
174 248 177 178 172 163 226 11 76 9 284 340 108 308 259 257 240 240 246 318 235 256 245 249 248 240 239 248 251 252 248 241 235 240 232 203 206 212 211 202 203 213 213 215 207 209 210 214 211 208 207 207 208 205 200 191 200 203 197 199 207 206 209 184 197 200 210 207 205 201 195 196 203 208 205 204 204 203 205 204 194 186 190 184 190 208 213 202 197 195 192 186 193 209 218 178 191
146 234 177 169 163 148 137 169 118 261 215 291 39 218 271 326 292 254 247 239 249 273 250 262 262 255 233 232 241 245 241 247 243 255 255 206 212 204 209 206 211 214 221 212 208 215 214 217 211 205 207 208 206 203 192 193 203 205 206 208 210 210 213 219 212 214 215 211 196 200 199 194 199 201 204 204 205 205 206 204 208 203 195 192 191 199 217 219 203 210 196 191 209 186 163 210 216
206 231 160 126 117 131 160 111 133 230 257 300 34 109 256 284 258 248 212 272 276 281 269 250 255 255 246 238 238 240 241 239 240 242 247 232 222 207 214 213 208 216 218 192 216 216 213 214 207 206 209 209 204 198 193 196 203 205 207 211 211 215 215 218 205 212 207 195 197 201 198 195 195 198 199 199 203 204 203 209 208 211 212 206 187 196 211 208 196 201 188 195 171 180 183 205 218
219 190 151 151 147 159 124 110 126 191 38 282 344 281 301 232 275 302 259 264 266 262 264 257 241 243 247 243 242 240 238 240 232 248 249 235 226 225 231 226 222 224 207 205 211 212 213 213 211 210 212 210 206 196 196 199 204 203 205 208 213 218 218 219 209 203 202 196 201 197 197 193 191 196 197 196 202 200 198 207 206 205 205 208 196 200 209 206 207 202 194 188 200 200 197 204 179
279 117 75 91 85 74 117 118 113 329 103 260 204 186 238 276 262 270 332 248 244 243 248 251 237 233 234 240 249 245 240 237 226 235 249 245 234 233 229 237 230 221 216 209 214 207 207 205 206 206 213 209 205 200 199 201 202 202 205 209 213 216 210 211 195 206 206 192 204 200 195 192 189 191 194 197 198 203 201 200 205 207 207 205 195 206 208 211 204 202 199 197 200 206 200 192 204
139 105 97 72 58 87 50 73 93 61 260 237 197 201 156 299 221 210 187 218 206 222 251 255 257 251 246 239 241 245 238 229 226 238 251 255 251 253 239 231 235 236 216 207 213 209 204 202 205 207 213 207 202 203 198 202 201 202 208 209 212 214 206 202 202 209 199 187 205 201 196 195 185 188 187 200 198 198 203 200 200 206 207 203 199 204 209 199 205 213 212 192 184 199 201 195 201
136 110 131 111 26 28 42 11 37 178 262 261 262 183 169 223 292 266 239 274 227 210 211 219 229 233 232 229 230 242 259 253 252 252 257 254 273 262 251 254 247 239 221 218 217 208 203 205 203 210 213 207 203 202 200 204 202 205 210 210 211 212 205 202 206 209 198 194 199 197 189 183 186 186 188 191 201 199 197 201 200 204 206 201 202 204 204 203 209 203 183 181 191 197 193 188 197
111 125 137 141 179 92 278 46 246 223 218 231 226 174 69 242 229 264 269 248 257 217 222 231 225 228 231 241 258 253 254 262 261 253 255 264 255 265 260 260 257 234 223 218 215 209 208 205 203 207 214 207 206 199 202 204 203 207 208 209 212 209 207 207 208 210 200 200 195 191 178 192 186 189 193 195 204 198 196 196 199 202 202 203 202 200 207 205 189 179 182 185 191 190 194 194 193
137 147 154 136 137 159 216 208 343 302 280 275 310 113 278 278 294 223 236 238 226 230 226 235 236 250 262 248 268 293 278 260 264 271 276 271 262 260 258 256 247 239 225 218 213 211 210 210 207 208 217 206 205 203 206 206 209 211 209 210 212 206 211 208 210 209 203 198 191 192 189 192 187 187 197 202 205 196 196 202 197 200 201 199 200 202 205 198 184 186 180 186 196 197 181 181 185
181 125 166 177 167 167 192 178 196 211 187 206 287 100 235 113 246 285 252 265 301 280 251 244 251 253 262 295 292 276 281 275 262 263 260 261 260 249 249 243 244 238 230 218 210 210 206 213 210 214 218 208 202 206 204 210 213 213 211 212 212 209 210 209 211 207 197 190 189 190 193 193 194 200 201 207 193 193 199 197 197 198 196 198 196 201 196 180 180 175 179 188 181 168 169 164 169
208 175 70 134 218 120 155 203 123 168 133 30 214 212 200 179 258 283 232 264 294 284 271 263 269 252 307 298 273 256 252 257 261 259 261 259 259 263 255 249 240 236 235 231 219 207 207 214 213 218 218 212 206 203 208 210 214 210 211 211 212 209 209 208 208 197 195 190 187 190 192 193 198 198 203 192 196 191 192 195 191 196 193 195 196 194 179 173 166 164 159 155 154 152 153 160 163
195 116 201 208 100 92 110 51 13 96 53 254 148 296 279 294 300 265 256 15 281 286 267 252 255 285 316 285 281 270 243 249 245 245 252 263 270 258 250 250 251 238 232 225 222 212 210 208 211 216 219 217 210 207 210 208 209 208 213 212 210 208 204 204 203 197 193 186 185 192 192 195 193 190 191 192 187 191 191 189 190 191 190 190 186 178 168 161 157 151 152 151 144 152 155 162 149
92 186 211 165 122 113 125 167 348 71 177 256 113 237 285 43 280 326 291 236 258 257 246 252 276 301 277 258 258 269 279 266 268 263 264 266 265 268 270 261 248 241 228 225 223 217 215 213 214 215 215 214 213 204 204 203 203 207 207 207 208 206 205 205 200 194 186 181 189 189 187 179 192 194 184 183 183 185 188 186 186 186 183 176 174 166 162 155 148 146 152 148 148 150 142 131 150
176 191 184 136 210 228 264 97 182 166 218 266 293 296 266 205 235 331 245 209 241 250 248 284 276 277 246 253 264 273 269 280 290 309 310 296 279 275 274 273 272 265 262 250 248 217 216 219 214 210 217 218 214 207 204 204 202 203 201 200 199 200 199 197 193 184 178 187 190 190 190 195 185 168 164 150 175 182 186 186 182 178 171 172 165 162 158 155 151 144 135 115 125 139 137 137 140
39 87 164 55 102 312 135 204 169 117 227 76 285 37 254 191 219 196 264 213 227 251 251 223 235 234 236 252 265 268 296 315 308 298 295 289 285 276 277 283 297 304 310 298 287 289 242 235 215 218 229 221 213 209 202 206 201 195 191 186 192 190 188 187 186 183 187 193 193 190 190 181 186 171 178 176 179 183 183 179 178 171 172 165 162 159 160 160 159 144 138 136 149 145 136 136 128
135 152 187 211 360 244 100 18 139 181 172 187 197 311 271 261 218 189 208 222 225 199 224 238 252 266 246 241 246 260 265 272 271 274 285 290 292 300 304 305 302 308 305 311 303 278 301 314 262 248 220 215 209 204 193 202 186 196 185 189 186 185 188 189 188 190 190 193 190 187 187 188 157 179 173 174 179 181 178 175 168 169 166 163 156 154 153 150 142 133 138 144 142 146 138 139 130
163 162 194 173 110 135 166 225 43 100 114 215 144 248 266 271 174 201 229 229 236 201 207 256 265 239 235 244 254 242 265 262 258 262 268 284 295 308 318 327 323 321 319 326 318 279 270 253 245 244 246 233 219 215 205 198 191 187 191 188 189 187 187 186 187 187 190 188 185 184 181 160 178 179 174 173 174 168 165 164 166 162 159 152 149 150 149 150 137 126 145 146 134 140 133 136 127